Year,Month,Day,Hour,Minute,Value (Times are PST for temperature in C)
2021,07,28,00,00,16.80
2021,07,28,00,01,16.80
2021,07,28,00,02,16.70
2021,07,28,00,03,16.70
2021,07,28,00,04,16.70
2021,07,28,00,05,16.60
2021,07,28,00,06,16.60
2021,07,28,00,07,16.60
2021,07,28,00,08,16.60
2021,07,28,00,09,16.50
2021,07,28,00,10,16.40
2021,07,28,00,11,16.40
2021,07,28,00,12,16.30
2021,07,28,00,13,16.30
2021,07,28,00,14,16.30
2021,07,28,00,15,16.20
2021,07,28,00,16,16.20
2021,07,28,00,17,16.20
2021,07,28,00,18,16.10
2021,07,28,00,19,16.10
2021,07,28,00,20,16.10
2021,07,28,00,21,16.10
2021,07,28,00,22,16.10
2021,07,28,00,23,16.10
2021,07,28,00,24,16.10
2021,07,28,00,25,16.00
2021,07,28,00,26,16.00
2021,07,28,00,27,16.00
2021,07,28,00,28,15.90
2021,07,28,00,29,15.90
2021,07,28,00,30,15.90
2021,07,28,00,31,15.80
2021,07,28,00,32,15.80
2021,07,28,00,33,15.70
2021,07,28,00,34,15.70
2021,07,28,00,35,15.70
2021,07,28,00,36,15.70
2021,07,28,00,37,15.60
2021,07,28,00,38,15.60
2021,07,28,00,39,15.60
2021,07,28,00,40,15.50
2021,07,28,00,41,15.50
2021,07,28,00,42,15.50
2021,07,28,00,43,15.60
2021,07,28,00,44,15.60
2021,07,28,00,45,15.60
2021,07,28,00,46,15.70
2021,07,28,00,47,15.70
2021,07,28,00,48,15.70
2021,07,28,00,49,15.70
2021,07,28,00,50,15.70
2021,07,28,00,51,15.70
2021,07,28,00,52,15.70
2021,07,28,00,53,15.70
2021,07,28,00,54,15.60
2021,07,28,00,55,15.60
2021,07,28,00,56,15.60
2021,07,28,00,57,15.60
2021,07,28,00,58,15.60
2021,07,28,00,59,15.60
2021,07,28,01,00,15.60
2021,07,28,01,01,15.60
2021,07,28,01,02,15.60
2021,07,28,01,03,15.60
2021,07,28,01,04,15.60
2021,07,28,01,05,15.60
2021,07,28,01,06,15.60
2021,07,28,01,07,15.70
2021,07,28,01,08,15.70
2021,07,28,01,09,15.60
2021,07,28,01,10,15.60
2021,07,28,01,11,15.60
2021,07,28,01,12,15.60
2021,07,28,01,13,15.60
2021,07,28,01,14,15.50
2021,07,28,01,15,15.50
2021,07,28,01,16,15.50
2021,07,28,01,17,15.50
2021,07,28,01,18,15.50
2021,07,28,01,19,15.60
2021,07,28,01,20,15.60
2021,07,28,01,21,15.60
2021,07,28,01,22,15.60
2021,07,28,01,23,15.60
2021,07,28,01,24,15.60
2021,07,28,01,25,15.60
2021,07,28,01,26,15.60
2021,07,28,01,27,15.60
2021,07,28,01,28,15.60
2021,07,28,01,29,15.60
2021,07,28,01,30,15.60
2021,07,28,01,31,15.60
2021,07,28,01,32,15.60
2021,07,28,01,33,15.60
2021,07,28,01,34,15.60
2021,07,28,01,35,15.60
2021,07,28,01,36,15.60
2021,07,28,01,37,15.60
2021,07,28,01,38,15.60
2021,07,28,01,39,15.60
2021,07,28,01,40,15.50
2021,07,28,01,41,15.50
2021,07,28,01,42,15.40
2021,07,28,01,43,15.40
2021,07,28,01,44,15.30
2021,07,28,01,45,15.30
2021,07,28,01,46,15.30
2021,07,28,01,47,15.30
2021,07,28,01,48,15.20
2021,07,28,01,49,15.20
2021,07,28,01,50,15.20
2021,07,28,01,51,15.20
2021,07,28,01,52,15.20
2021,07,28,01,53,15.20
2021,07,28,01,54,15.20
2021,07,28,01,55,15.20
2021,07,28,01,56,15.20
2021,07,28,01,57,15.20
2021,07,28,01,58,15.20
2021,07,28,01,59,15.10
2021,07,28,02,00,15.10
2021,07,28,02,01,15.10
2021,07,28,02,02,15.10
2021,07,28,02,03,15.10
2021,07,28,02,04,15.10
2021,07,28,02,05,15.10
2021,07,28,02,06,15.10
2021,07,28,02,07,15.10
2021,07,28,02,08,15.10
2021,07,28,02,09,15.10
2021,07,28,02,10,15.10
2021,07,28,02,11,15.00
2021,07,28,02,12,15.00
2021,07,28,02,13,15.00
2021,07,28,02,14,15.00
2021,07,28,02,15,14.90
2021,07,28,02,16,14.90
2021,07,28,02,17,14.90
2021,07,28,02,18,14.90
2021,07,28,02,19,14.90
2021,07,28,02,20,14.90
2021,07,28,02,21,14.90
2021,07,28,02,22,14.90
2021,07,28,02,23,14.90
2021,07,28,02,24,14.90
2021,07,28,02,25,14.90
2021,07,28,02,26,15.00
2021,07,28,02,27,15.00
2021,07,28,02,28,15.00
2021,07,28,02,29,15.10
2021,07,28,02,30,15.10
2021,07,28,02,31,15.10
2021,07,28,02,32,15.10
2021,07,28,02,33,15.00
2021,07,28,02,34,15.00
2021,07,28,02,35,14.90
2021,07,28,02,36,14.90
2021,07,28,02,37,14.90
2021,07,28,02,38,14.90
2021,07,28,02,39,14.90
2021,07,28,02,40,14.90
2021,07,28,02,41,14.90
2021,07,28,02,42,14.80
2021,07,28,02,43,14.80
2021,07,28,02,44,14.80
2021,07,28,02,45,14.70
2021,07,28,02,46,14.70
2021,07,28,02,47,14.70
2021,07,28,02,48,14.60
2021,07,28,02,49,14.60
2021,07,28,02,50,14.60
2021,07,28,02,51,14.50
2021,07,28,02,52,14.50
2021,07,28,02,53,14.40
2021,07,28,02,54,14.30
2021,07,28,02,55,14.30
2021,07,28,02,56,14.30
2021,07,28,02,57,14.30
2021,07,28,02,58,14.30
2021,07,28,02,59,14.30
2021,07,28,03,00,14.30
2021,07,28,03,01,14.40
2021,07,28,03,02,14.40
2021,07,28,03,03,14.40
2021,07,28,03,04,14.40
2021,07,28,03,05,14.40
2021,07,28,03,06,14.40
2021,07,28,03,07,14.50
2021,07,28,03,08,14.50
2021,07,28,03,09,14.50
2021,07,28,03,10,14.50
2021,07,28,03,11,14.50
2021,07,28,03,12,14.50
2021,07,28,03,13,14.60
2021,07,28,03,14,14.60
2021,07,28,03,15,14.50
2021,07,28,03,16,14.50
2021,07,28,03,17,14.50
2021,07,28,03,18,14.50
2021,07,28,03,19,14.50
2021,07,28,03,20,14.50
2021,07,28,03,21,14.40
2021,07,28,03,22,14.40
2021,07,28,03,23,14.40
2021,07,28,03,24,14.40
2021,07,28,03,25,14.40
2021,07,28,03,26,14.40
2021,07,28,03,27,14.40
2021,07,28,03,28,14.40
2021,07,28,03,29,14.40
2021,07,28,03,30,14.30
2021,07,28,03,31,14.30
2021,07,28,03,32,14.30
2021,07,28,03,33,14.30
2021,07,28,03,34,14.30
2021,07,28,03,35,14.30
2021,07,28,03,36,14.30
2021,07,28,03,37,14.30
2021,07,28,03,38,14.30
2021,07,28,03,39,14.30
2021,07,28,03,40,14.30
2021,07,28,03,41,14.30
2021,07,28,03,42,14.30
2021,07,28,03,43,14.30
2021,07,28,03,44,14.30
2021,07,28,03,45,14.40
2021,07,28,03,46,14.40
2021,07,28,03,47,14.40
2021,07,28,03,48,14.40
2021,07,28,03,49,14.40
2021,07,28,03,50,14.40
2021,07,28,03,51,14.40
2021,07,28,03,52,14.40
2021,07,28,03,53,14.40
2021,07,28,03,54,14.40
2021,07,28,03,55,14.40
2021,07,28,03,56,14.40
2021,07,28,03,57,14.40
2021,07,28,03,58,14.50
2021,07,28,03,59,14.50
2021,07,28,04,00,14.50
2021,07,28,04,01,14.60
2021,07,28,04,02,14.60
2021,07,28,04,03,14.60
2021,07,28,04,04,14.60
2021,07,28,04,08,14.60
2021,07,28,04,09,14.60
2021,07,28,04,10,14.60
2021,07,28,04,11,14.60
2021,07,28,04,12,14.60
2021,07,28,04,13,14.60
2021,07,28,04,14,14.70
2021,07,28,04,15,14.70
2021,07,28,04,16,14.70
2021,07,28,04,17,14.70
2021,07,28,04,18,14.70
2021,07,28,04,19,14.70
2021,07,28,04,20,14.80
2021,07,28,04,21,14.80
2021,07,28,04,22,14.80
2021,07,28,04,23,14.80
2021,07,28,04,24,14.80
2021,07,28,04,25,14.90
2021,07,28,04,26,14.80
2021,07,28,04,27,14.80
2021,07,28,04,28,14.80
2021,07,28,04,29,14.80
2021,07,28,04,30,14.80
2021,07,28,04,31,14.80
2021,07,28,04,32,14.80
2021,07,28,04,33,14.80
2021,07,28,04,34,14.80
2021,07,28,04,35,14.80
2021,07,28,04,36,14.80
2021,07,28,04,37,14.70
2021,07,28,04,38,14.70
2021,07,28,04,39,14.70
2021,07,28,04,40,14.70
2021,07,28,04,41,14.70
2021,07,28,04,42,14.70
2021,07,28,04,43,14.70
2021,07,28,04,44,14.70
2021,07,28,04,45,14.60
2021,07,28,04,46,14.60
2021,07,28,04,47,14.60
2021,07,28,04,48,14.60
2021,07,28,04,49,14.60
2021,07,28,04,50,14.50
2021,07,28,04,51,14.50
2021,07,28,04,52,14.50
2021,07,28,04,53,14.50
2021,07,28,04,54,14.40
2021,07,28,04,55,14.40
2021,07,28,04,56,14.40
2021,07,28,04,57,14.40
2021,07,28,04,58,14.30
2021,07,28,04,59,14.30
2021,07,28,05,00,14.30
2021,07,28,05,01,14.30
2021,07,28,05,02,14.30
2021,07,28,05,03,14.20
2021,07,28,05,04,14.20
2021,07,28,05,05,14.20
2021,07,28,05,06,14.20
2021,07,28,05,07,14.20
2021,07,28,05,08,14.20
2021,07,28,05,09,14.10
2021,07,28,05,10,14.10
2021,07,28,05,11,14.10
2021,07,28,05,12,14.10
2021,07,28,05,13,14.10
2021,07,28,05,14,14.10
2021,07,28,05,15,14.10
2021,07,28,05,16,14.00
2021,07,28,05,17,14.00
2021,07,28,05,18,14.00
2021,07,28,05,19,14.00
2021,07,28,05,20,13.90
2021,07,28,05,21,13.90
2021,07,28,05,22,13.90
2021,07,28,05,23,13.90
2021,07,28,05,24,13.90
2021,07,28,05,25,13.90
2021,07,28,05,26,13.90
2021,07,28,05,27,13.90
2021,07,28,05,28,13.90
2021,07,28,05,29,13.80
2021,07,28,05,30,13.80
2021,07,28,05,31,13.80
2021,07,28,05,32,13.80
2021,07,28,05,33,13.80
2021,07,28,05,34,13.80
2021,07,28,05,35,13.80
2021,07,28,05,36,13.80
2021,07,28,05,37,13.80
2021,07,28,05,38,13.70
2021,07,28,05,39,13.70
2021,07,28,05,40,13.70
2021,07,28,05,41,13.70
2021,07,28,05,42,13.70
2021,07,28,05,43,13.70
2021,07,28,05,44,13.60
2021,07,28,05,45,13.60
2021,07,28,05,46,13.60
2021,07,28,05,47,13.60
2021,07,28,05,48,13.60
2021,07,28,05,49,13.60
2021,07,28,05,50,13.50
2021,07,28,05,51,13.50
2021,07,28,05,52,13.50
2021,07,28,05,53,13.50
2021,07,28,05,54,13.50
2021,07,28,05,55,13.50
2021,07,28,05,56,13.50
2021,07,28,05,57,13.50
2021,07,28,05,58,13.40
2021,07,28,05,59,13.40
2021,07,28,06,00,13.40
2021,07,28,06,01,13.40
2021,07,28,06,02,13.40
2021,07,28,06,03,13.40
2021,07,28,06,04,13.40
2021,07,28,06,05,13.40
2021,07,28,06,06,13.40
2021,07,28,06,07,13.40
2021,07,28,06,08,13.40
2021,07,28,06,09,13.30
2021,07,28,06,10,13.30
2021,07,28,06,11,13.30
2021,07,28,06,12,13.30
2021,07,28,06,13,13.30
2021,07,28,06,14,13.20
2021,07,28,06,15,13.20
2021,07,28,06,16,13.20
2021,07,28,06,17,13.20
2021,07,28,06,18,13.20
2021,07,28,06,19,13.10
2021,07,28,06,20,13.10
2021,07,28,06,21,13.10
2021,07,28,06,22,13.10
2021,07,28,06,23,13.00
2021,07,28,06,24,13.00
2021,07,28,06,25,13.00
2021,07,28,06,26,12.90
2021,07,28,06,27,12.90
2021,07,28,06,28,12.90
2021,07,28,06,29,12.90
2021,07,28,06,30,12.90
2021,07,28,06,31,12.90
2021,07,28,06,32,12.90
2021,07,28,06,33,12.90
2021,07,28,06,34,12.90
2021,07,28,06,35,12.90
2021,07,28,06,36,12.90
2021,07,28,06,37,12.90
2021,07,28,06,38,12.90
2021,07,28,06,39,12.90
2021,07,28,06,40,13.00
2021,07,28,06,41,13.00
2021,07,28,06,42,13.00
2021,07,28,06,43,13.10
2021,07,28,06,44,13.10
2021,07,28,06,45,13.10
2021,07,28,06,46,13.20
2021,07,28,06,47,13.20
2021,07,28,06,48,13.30
2021,07,28,06,49,13.30
2021,07,28,06,50,13.40
2021,07,28,06,51,13.40
2021,07,28,06,52,13.50
2021,07,28,06,53,13.60
2021,07,28,06,54,13.60
2021,07,28,06,55,13.70
2021,07,28,06,56,13.80
2021,07,28,06,57,13.80
2021,07,28,06,58,13.90
2021,07,28,06,59,14.00
2021,07,28,07,00,14.10
2021,07,28,07,01,14.20
2021,07,28,07,02,14.20
2021,07,28,07,03,14.30
2021,07,28,07,04,14.30
2021,07,28,07,05,14.40
2021,07,28,07,06,14.50
2021,07,28,07,07,14.60
2021,07,28,07,08,14.60
2021,07,28,07,09,14.70
2021,07,28,07,10,14.80
2021,07,28,07,11,14.80
2021,07,28,07,12,14.90
2021,07,28,07,13,15.00
2021,07,28,07,14,15.10
2021,07,28,07,15,15.10
2021,07,28,07,16,15.20
2021,07,28,07,17,15.40
2021,07,28,07,18,15.50
2021,07,28,07,19,15.60
2021,07,28,07,20,15.70
2021,07,28,07,21,15.80
2021,07,28,07,22,15.90
2021,07,28,07,23,16.00
2021,07,28,07,24,16.10
2021,07,28,07,25,16.20
2021,07,28,07,26,16.30
2021,07,28,07,27,16.30
2021,07,28,07,28,16.40
2021,07,28,07,29,16.40
2021,07,28,07,30,16.50
2021,07,28,07,31,16.60
2021,07,28,07,32,16.60
2021,07,28,07,33,16.70
2021,07,28,07,34,16.80
2021,07,28,07,35,16.80
2021,07,28,07,36,16.90
2021,07,28,07,37,17.00
2021,07,28,07,38,17.10
2021,07,28,07,39,17.20
2021,07,28,07,40,17.30
2021,07,28,07,41,17.40
2021,07,28,07,42,17.40
2021,07,28,07,43,17.50
2021,07,28,07,44,17.60
2021,07,28,07,45,17.70
2021,07,28,07,46,17.80
2021,07,28,07,47,17.80
2021,07,28,07,48,17.90
2021,07,28,07,49,18.00
2021,07,28,07,50,18.10
2021,07,28,07,51,18.20
2021,07,28,07,52,18.20
2021,07,28,07,53,18.30
2021,07,28,07,54,18.30
2021,07,28,07,55,18.40
2021,07,28,07,56,18.50
2021,07,28,07,57,18.50
2021,07,28,07,58,18.60
2021,07,28,07,59,18.70
2021,07,28,08,00,18.80
2021,07,28,08,01,18.80
2021,07,28,08,02,18.90
2021,07,28,08,03,19.00
2021,07,28,08,04,19.10
2021,07,28,08,05,19.10
2021,07,28,08,06,19.20
2021,07,28,08,07,19.30
2021,07,28,08,08,19.40
2021,07,28,08,09,19.50
2021,07,28,08,10,19.60
2021,07,28,08,11,19.70
2021,07,28,08,12,19.70
2021,07,28,08,13,19.80
2021,07,28,08,14,19.90
2021,07,28,08,15,19.90
2021,07,28,08,16,20.00
2021,07,28,08,17,20.10
2021,07,28,08,18,20.10
2021,07,28,08,19,20.10
2021,07,28,08,20,20.10
2021,07,28,08,21,20.10
2021,07,28,08,22,20.10
2021,07,28,08,23,20.10
2021,07,28,08,24,20.10
2021,07,28,08,25,20.10
2021,07,28,08,26,20.10
2021,07,28,08,27,20.10
2021,07,28,08,28,20.10
2021,07,28,08,29,20.20
2021,07,28,08,30,20.20
2021,07,28,08,31,20.20
2021,07,28,08,32,20.20
2021,07,28,08,33,20.20
2021,07,28,08,34,20.20
2021,07,28,08,35,20.20
2021,07,28,08,36,20.20
2021,07,28,08,37,20.30
2021,07,28,08,38,20.30
2021,07,28,08,39,20.40
2021,07,28,08,40,20.40
2021,07,28,08,41,20.40
2021,07,28,08,42,20.40
2021,07,28,08,43,20.50
2021,07,28,08,44,20.50
2021,07,28,08,45,20.60
2021,07,28,08,46,20.50
2021,07,28,08,47,20.50
2021,07,28,08,48,20.50
2021,07,28,08,49,20.40
2021,07,28,08,50,20.40
2021,07,28,08,51,20.40
2021,07,28,08,52,20.40
2021,07,28,08,53,20.50
2021,07,28,08,54,20.50
2021,07,28,08,55,20.50
2021,07,28,08,56,20.60
2021,07,28,08,57,20.60
2021,07,28,08,58,20.60
2021,07,28,08,59,20.70
2021,07,28,09,00,20.70
2021,07,28,09,01,20.80
2021,07,28,09,02,20.80
2021,07,28,09,03,20.90
2021,07,28,09,04,20.90
2021,07,28,09,05,21.00
2021,07,28,09,06,21.00
2021,07,28,09,07,21.10
2021,07,28,09,08,21.00
2021,07,28,09,09,21.00
2021,07,28,09,10,20.90
2021,07,28,09,11,20.90
2021,07,28,09,12,21.00
2021,07,28,09,13,21.10
2021,07,28,09,14,21.10
2021,07,28,09,15,21.20
2021,07,28,09,16,21.30
2021,07,28,09,17,21.40
2021,07,28,09,18,21.40
2021,07,28,09,19,21.40
2021,07,28,09,20,21.50
2021,07,28,09,21,21.60
2021,07,28,09,22,21.70
2021,07,28,09,23,21.70
2021,07,28,09,24,21.70
2021,07,28,09,25,21.80
2021,07,28,09,26,21.80
2021,07,28,09,27,21.90
2021,07,28,09,28,22.00
2021,07,28,09,29,22.10
2021,07,28,09,30,22.10
2021,07,28,09,31,22.10
2021,07,28,09,32,22.20
2021,07,28,09,33,22.30
2021,07,28,09,34,22.40
2021,07,28,09,35,22.40
2021,07,28,09,36,22.50
2021,07,28,09,37,22.50
2021,07,28,09,38,22.50
2021,07,28,09,39,22.50
2021,07,28,09,40,22.60
2021,07,28,09,41,22.60
2021,07,28,09,42,22.60
2021,07,28,09,43,22.60
2021,07,28,09,44,22.60
2021,07,28,09,45,22.70
2021,07,28,09,46,22.80
2021,07,28,09,47,22.80
2021,07,28,09,48,22.90
2021,07,28,09,49,23.00
2021,07,28,09,50,23.10
2021,07,28,09,51,23.20
2021,07,28,09,52,23.20
2021,07,28,09,53,23.20
2021,07,28,09,54,23.20
2021,07,28,09,55,23.20
2021,07,28,09,56,23.10
2021,07,28,09,57,23.10
2021,07,28,09,58,23.10
2021,07,28,09,59,23.00
2021,07,28,10,00,22.90
2021,07,28,10,01,22.90
2021,07,28,10,02,22.80
2021,07,28,10,03,22.70
2021,07,28,10,04,22.60
2021,07,28,10,05,22.50
2021,07,28,10,06,22.40
2021,07,28,10,07,22.30
2021,07,28,10,08,22.30
2021,07,28,10,09,22.30
2021,07,28,10,10,22.30
2021,07,28,10,11,22.20
2021,07,28,10,12,22.20
2021,07,28,10,13,22.20
2021,07,28,10,14,22.00
2021,07,28,10,15,21.90
2021,07,28,10,16,21.80
2021,07,28,10,17,21.70
2021,07,28,10,18,21.60
2021,07,28,10,19,21.50
2021,07,28,10,20,21.50
2021,07,28,10,21,21.50
2021,07,28,10,22,21.60
2021,07,28,10,23,21.60
2021,07,28,10,24,21.60
2021,07,28,10,25,21.70
2021,07,28,10,26,21.70
2021,07,28,10,27,21.80
2021,07,28,10,28,21.80
2021,07,28,10,29,21.70
2021,07,28,10,30,21.60
2021,07,28,10,31,21.60
2021,07,28,10,32,21.60
2021,07,28,10,33,21.60
2021,07,28,10,34,21.60
2021,07,28,10,35,21.70
2021,07,28,10,36,21.70
2021,07,28,10,37,21.70
2021,07,28,10,38,21.70
2021,07,28,10,39,21.80
2021,07,28,10,40,21.80
2021,07,28,10,41,21.80
2021,07,28,10,42,21.80
2021,07,28,10,43,21.90
2021,07,28,10,44,22.00
2021,07,28,10,45,22.10
2021,07,28,10,46,22.20
2021,07,28,10,47,22.30
2021,07,28,10,48,22.40
2021,07,28,10,49,22.40
2021,07,28,10,50,22.50
2021,07,28,10,51,22.50
2021,07,28,10,52,22.60
2021,07,28,10,53,22.60
2021,07,28,10,54,22.60
2021,07,28,10,55,22.60
2021,07,28,10,56,22.60
2021,07,28,10,57,22.70
2021,07,28,10,58,22.70
2021,07,28,10,59,22.70
2021,07,28,11,00,22.80
2021,07,28,11,01,22.80
2021,07,28,11,02,22.80
2021,07,28,11,03,22.70
2021,07,28,11,04,22.60
2021,07,28,11,05,22.50
2021,07,28,11,06,22.40
2021,07,28,11,07,22.40
2021,07,28,11,08,22.40
2021,07,28,11,09,22.40
2021,07,28,11,10,22.40
2021,07,28,11,11,22.40
2021,07,28,11,12,22.40
2021,07,28,11,13,22.50
2021,07,28,11,14,22.50
2021,07,28,11,15,22.50
2021,07,28,11,16,22.50
2021,07,28,11,17,22.40
2021,07,28,11,18,22.30
2021,07,28,11,19,22.30
2021,07,28,11,20,22.30
2021,07,28,11,21,22.30
2021,07,28,11,22,22.30
2021,07,28,11,23,22.30
2021,07,28,11,24,22.30
2021,07,28,11,25,22.30
2021,07,28,11,26,22.30
2021,07,28,11,27,22.30
2021,07,28,11,28,22.20
2021,07,28,11,29,22.20
2021,07,28,11,30,22.20
2021,07,28,11,31,22.30
2021,07,28,11,32,22.40
2021,07,28,11,33,22.40
2021,07,28,11,34,22.40
2021,07,28,11,35,22.50
2021,07,28,11,36,22.50
2021,07,28,11,37,22.50
2021,07,28,11,38,22.50
2021,07,28,11,39,22.50
2021,07,28,11,40,22.60
2021,07,28,11,41,22.60
2021,07,28,11,42,22.60
2021,07,28,11,43,22.60
2021,07,28,11,44,22.60
2021,07,28,11,45,22.50
2021,07,28,11,46,22.30
2021,07,28,11,47,22.10
2021,07,28,11,48,21.90
2021,07,28,11,49,21.80
2021,07,28,11,50,21.80
2021,07,28,11,51,21.80
2021,07,28,11,52,21.90
2021,07,28,11,53,21.90
2021,07,28,11,54,22.10
2021,07,28,11,55,22.20
2021,07,28,11,56,22.40
2021,07,28,11,57,22.50
2021,07,28,11,58,22.60
2021,07,28,11,59,22.60
2021,07,28,12,00,22.60
2021,07,28,12,01,22.70
2021,07,28,12,02,22.80
2021,07,28,12,03,22.90
2021,07,28,12,04,23.00
2021,07,28,12,05,23.00
2021,07,28,12,06,23.00
2021,07,28,12,07,22.90
2021,07,28,12,08,22.90
2021,07,28,12,09,23.00
2021,07,28,12,10,23.10
2021,07,28,12,11,23.10
2021,07,28,12,12,23.20
2021,07,28,12,13,23.30
2021,07,28,12,14,23.50
2021,07,28,12,15,23.60
2021,07,28,12,16,23.80
2021,07,28,12,17,24.00
2021,07,28,12,18,24.00
2021,07,28,12,19,24.10
2021,07,28,12,20,24.20
2021,07,28,12,21,24.30
2021,07,28,12,22,24.40
2021,07,28,12,23,24.50
2021,07,28,12,24,24.60
2021,07,28,12,25,24.60
2021,07,28,12,26,24.70
2021,07,28,12,27,24.80
2021,07,28,12,28,24.90
2021,07,28,12,29,24.90
2021,07,28,12,30,25.00
2021,07,28,12,31,25.10
2021,07,28,12,32,25.20
2021,07,28,12,33,25.20
2021,07,28,12,34,25.10
2021,07,28,12,35,25.10
2021,07,28,12,36,25.10
2021,07,28,12,37,25.00
2021,07,28,12,38,25.10
2021,07,28,12,39,25.10
2021,07,28,12,40,25.10
2021,07,28,12,41,25.00
2021,07,28,12,42,24.90
2021,07,28,12,43,24.80
2021,07,28,12,44,24.80
2021,07,28,12,45,24.80
2021,07,28,12,46,24.80
2021,07,28,12,47,24.80
2021,07,28,12,48,24.90
2021,07,28,12,49,25.00
2021,07,28,12,50,25.10
2021,07,28,12,51,25.20
2021,07,28,12,52,25.20
2021,07,28,12,53,25.30
2021,07,28,12,54,25.30
2021,07,28,12,55,25.40
2021,07,28,12,56,25.40
2021,07,28,12,57,25.40
2021,07,28,12,58,25.40
2021,07,28,12,59,25.40
2021,07,28,13,00,25.30
2021,07,28,13,01,25.20
2021,07,28,13,02,25.20
2021,07,28,13,03,25.20
2021,07,28,13,04,25.30
2021,07,28,13,05,25.30
2021,07,28,13,06,25.30
2021,07,28,13,07,25.30
2021,07,28,13,08,25.30
2021,07,28,13,09,25.40
2021,07,28,13,10,25.40
2021,07,28,13,11,25.50
2021,07,28,13,12,25.50
2021,07,28,13,13,25.60
2021,07,28,13,14,25.60
2021,07,28,13,15,25.60
2021,07,28,13,16,25.60
2021,07,28,13,17,25.60
2021,07,28,13,18,25.60
2021,07,28,13,19,25.60
2021,07,28,13,20,25.80
2021,07,28,13,21,25.80
2021,07,28,13,22,25.90
2021,07,28,13,23,26.00
2021,07,28,13,24,26.10
2021,07,28,13,25,26.10
2021,07,28,13,26,26.00
2021,07,28,13,27,25.90
2021,07,28,13,28,25.70
2021,07,28,13,29,25.60
2021,07,28,13,30,25.60
2021,07,28,13,31,25.60
2021,07,28,13,32,25.60
2021,07,28,13,33,25.70
2021,07,28,13,34,25.60
2021,07,28,13,35,25.40
2021,07,28,13,36,25.30
2021,07,28,13,37,25.10
2021,07,28,13,38,25.00
2021,07,28,13,39,24.90
2021,07,28,13,40,24.80
2021,07,28,13,41,24.60
2021,07,28,13,42,24.50
2021,07,28,13,43,24.40
2021,07,28,13,44,24.30
2021,07,28,13,45,24.30
2021,07,28,13,46,24.30
2021,07,28,13,47,24.30
2021,07,28,13,48,24.30
2021,07,28,13,49,24.30
2021,07,28,13,50,24.30
2021,07,28,13,51,24.30
2021,07,28,13,52,24.50
2021,07,28,13,53,24.80
2021,07,28,13,54,25.00
2021,07,28,13,55,25.10
2021,07,28,13,56,25.20
2021,07,28,13,57,25.30
2021,07,28,13,58,25.40
2021,07,28,13,59,25.50
2021,07,28,14,00,25.60
2021,07,28,14,01,25.60
2021,07,28,14,02,25.70
2021,07,28,14,03,25.70
2021,07,28,14,04,25.70
2021,07,28,14,05,25.60
2021,07,28,14,06,25.50
2021,07,28,14,07,25.50
2021,07,28,14,08,25.40
2021,07,28,14,09,25.40
2021,07,28,14,10,25.40
2021,07,28,14,11,25.50
2021,07,28,14,12,25.50
2021,07,28,14,13,25.70
2021,07,28,14,14,25.80
2021,07,28,14,15,26.00
2021,07,28,14,16,26.20
2021,07,28,14,17,26.30
2021,07,28,14,18,26.30
2021,07,28,14,19,26.30
2021,07,28,14,20,26.40
2021,07,28,14,21,26.40
2021,07,28,14,22,26.30
2021,07,28,14,23,26.20
2021,07,28,14,24,26.10
2021,07,28,14,25,26.00
2021,07,28,14,26,25.90
2021,07,28,14,27,25.80
2021,07,28,14,28,25.80
2021,07,28,14,29,25.80
2021,07,28,14,30,25.70
2021,07,28,14,31,25.60
2021,07,28,14,32,25.50
2021,07,28,14,33,25.40
2021,07,28,14,34,25.40
2021,07,28,14,35,25.40
2021,07,28,14,36,25.40
2021,07,28,14,37,25.40
2021,07,28,14,38,25.40
2021,07,28,14,39,25.40
2021,07,28,14,40,25.40
2021,07,28,14,41,25.50
2021,07,28,14,42,25.60
2021,07,28,14,43,25.60
2021,07,28,14,44,25.60
2021,07,28,14,45,25.70
2021,07,28,14,46,25.60
2021,07,28,14,47,25.60
2021,07,28,14,48,25.60
2021,07,28,14,49,25.60
2021,07,28,14,50,25.60
2021,07,28,14,51,25.60
2021,07,28,14,52,25.60
2021,07,28,14,53,25.60
2021,07,28,14,54,25.50
2021,07,28,14,55,25.50
2021,07,28,14,56,25.60
2021,07,28,14,57,25.70
2021,07,28,14,58,25.80
2021,07,28,14,59,25.90
2021,07,28,15,00,25.90
2021,07,28,15,01,25.90
2021,07,28,15,02,25.80
2021,07,28,15,03,25.80
2021,07,28,15,04,25.70
2021,07,28,15,05,25.70
2021,07,28,15,06,25.70
2021,07,28,15,07,25.70
2021,07,28,15,08,25.70
2021,07,28,15,09,25.70
2021,07,28,15,10,25.70
2021,07,28,15,11,25.60
2021,07,28,15,12,25.60
2021,07,28,15,13,25.70
2021,07,28,15,14,25.70
2021,07,28,15,15,25.80
2021,07,28,15,16,25.80
2021,07,28,15,17,25.80
2021,07,28,15,18,25.90
2021,07,28,15,19,26.00
2021,07,28,15,20,26.10
2021,07,28,15,21,26.10
2021,07,28,15,22,26.10
2021,07,28,15,23,26.00
2021,07,28,15,24,26.00
2021,07,28,15,25,26.00
2021,07,28,15,26,25.90
2021,07,28,15,27,25.90
2021,07,28,15,28,25.90
2021,07,28,15,29,25.90
2021,07,28,15,30,25.90
2021,07,28,15,31,25.80
2021,07,28,15,32,25.80
2021,07,28,15,33,25.90
2021,07,28,15,34,25.90
2021,07,28,15,35,25.90
2021,07,28,15,36,26.00
2021,07,28,15,37,26.00
2021,07,28,15,38,26.00
2021,07,28,15,39,25.90
2021,07,28,15,40,25.80
2021,07,28,15,41,25.90
2021,07,28,15,42,25.80
2021,07,28,15,43,25.80
2021,07,28,15,44,25.80
2021,07,28,15,45,25.80
2021,07,28,15,46,25.70
2021,07,28,15,47,25.70
2021,07,28,15,48,25.70
2021,07,28,15,49,25.70
2021,07,28,15,50,25.70
2021,07,28,15,51,25.70
2021,07,28,15,52,25.70
2021,07,28,15,53,25.70
2021,07,28,15,54,25.70
2021,07,28,15,55,25.70
2021,07,28,15,56,25.70
2021,07,28,15,57,25.80
2021,07,28,15,58,25.80
2021,07,28,15,59,25.80
2021,07,28,16,00,25.90
2021,07,28,16,01,25.90
2021,07,28,16,02,26.00
2021,07,28,16,03,26.10
2021,07,28,16,04,26.30
2021,07,28,16,05,26.50
2021,07,28,16,06,26.60
2021,07,28,16,07,26.80
2021,07,28,16,08,26.90
2021,07,28,16,09,27.00
2021,07,28,16,10,27.10
2021,07,28,16,11,27.10
2021,07,28,16,12,27.20
2021,07,28,16,13,27.30
2021,07,28,16,14,27.40
2021,07,28,16,15,27.50
2021,07,28,16,16,27.60
2021,07,28,16,17,27.70
2021,07,28,16,18,27.70
2021,07,28,16,19,27.70
2021,07,28,16,20,27.70
2021,07,28,16,21,27.70
2021,07,28,16,22,27.60
2021,07,28,16,23,27.60
2021,07,28,16,24,27.50
2021,07,28,16,25,27.50
2021,07,28,16,26,27.50
2021,07,28,16,27,27.50
2021,07,28,16,28,27.50
2021,07,28,16,29,27.50
2021,07,28,16,30,27.50
2021,07,28,16,31,27.50
2021,07,28,16,32,27.60
2021,07,28,16,33,27.60
2021,07,28,16,34,27.60
2021,07,28,16,35,27.60
2021,07,28,16,36,27.60
2021,07,28,16,37,27.60
2021,07,28,16,38,27.70
2021,07,28,16,39,27.70
2021,07,28,16,40,27.80
2021,07,28,16,41,27.90
2021,07,28,16,42,28.00
2021,07,28,16,43,28.00
2021,07,28,16,44,28.10
2021,07,28,16,45,28.10
2021,07,28,16,46,28.10
2021,07,28,16,47,28.10
2021,07,28,16,48,28.00
2021,07,28,16,49,28.00
2021,07,28,16,50,27.90
2021,07,28,16,51,27.90
2021,07,28,16,52,28.00
2021,07,28,16,53,28.00
2021,07,28,16,54,28.10
2021,07,28,16,55,28.10
2021,07,28,16,56,28.10
2021,07,28,16,57,28.20
2021,07,28,16,58,28.20
2021,07,28,16,59,28.20
2021,07,28,17,00,28.20
2021,07,28,17,01,28.20
2021,07,28,17,02,28.20
2021,07,28,17,03,28.20
2021,07,28,17,04,28.20
2021,07,28,17,05,28.30
2021,07,28,17,06,28.30
2021,07,28,17,07,28.30
2021,07,28,17,08,28.40
2021,07,28,17,09,28.40
2021,07,28,17,10,28.40
2021,07,28,17,11,28.40
2021,07,28,17,12,28.40
2021,07,28,17,13,28.30
2021,07,28,17,14,28.30
2021,07,28,17,15,28.20
2021,07,28,17,16,28.20
2021,07,28,17,17,28.30
2021,07,28,17,18,28.30
2021,07,28,17,19,28.30
2021,07,28,17,20,28.20
2021,07,28,17,21,28.20
2021,07,28,17,22,28.20